Change the Weather History Date:

Wednesday, March 6, 2013

  Actual Average (KGVL) Record (KGVL)
Temperature  
Mean Temperature 36 °F -  
Max Temperature 41 °F 60 °F - (0)
Min Temperature 32 °F 40 °F - (0)
Degree Days  
Heating Degree Days 28    
Moisture  
Dew Point 18 °F    
Average Humidity 48    
Maximum Humidity 70    
Minimum Humidity 31    
Precipitation  
Precipitation 0.00 in - - ()
Sea Level Pressure  
Sea Level Pressure 30.00 in    
Wind  
Wind Speed 17 mph (NW)    
Max Wind Speed 24 mph    
Max Gust Speed 34 mph    
Visibility 10 miles    
Events Snow    
T = Trace of Precipitation, MM = Missing Value Source: NWS Daily Summary

Daily Weather History Graph

Daily Weather History Graph

Search for Another Location

Airport or City:

Trip Planner

Search our weather history database for the weather conditions in past years. The results will help you decide how hot, cold, wet, or windy it might be!

Date:

Astronomy

Mar. 06, 2013 Rise Set
Actual Time 6:56 AM EST 6:34 PM EST
Civil Twilight 6:31 AM EST 7:00 PM EST
Nautical Twilight 6:02 AM EST 7:29 PM EST
Astronomical Twilight 5:33 AM EST 7:58 PM EST
Moon 2:53 AM EST (3/6) 1:26 PM EST (3/6)
Length of Visible Light 12h 28m
Length of Day
11h 38m
Waning Crescent, 30% of the Moon is Illuminated
Mar 6
Waning Crescent
Mar 11
New
Mar 19
First Quarter
Mar 27
Full
Apr 3
Last Quarter

Hourly Weather History & Observations

Time (EST) Temp. Windchill Dew Point Humidity Pressure Visibility Wind Dir Wind Speed Gust Speed Precip Events Conditions
12:15 AM 39.2 °F 29.0 °F 15.8 °F 39% 29.86 in 10.0 mi WNW 21.9 mph 33.4 mph N/A   Overcast
12:35 AM 37.4 °F 28.2 °F 17.6 °F 45% 29.86 in 10.0 mi WNW 16.1 mph 28.8 mph N/A   Overcast
12:55 AM 37.4 °F 27.8 °F 17.6 °F 45% 29.85 in 10.0 mi WNW 17.3 mph 25.3 mph N/A   Overcast
1:15 AM 37.4 °F 28.9 °F 17.6 °F 45% 29.85 in 10.0 mi WNW 13.8 mph 25.3 mph N/A   Overcast
1:35 AM 37.4 °F 29.3 °F 17.6 °F 45% 29.85 in 10.0 mi WNW 12.7 mph 24.2 mph N/A   Overcast
1:55 AM 37.4 °F 27.5 °F 17.6 °F 45% 29.84 in 10.0 mi WNW 18.4 mph 23.0 mph N/A   Overcast
2:15 AM 37.4 °F 27.2 °F 17.6 °F 45% 29.84 in 10.0 mi WNW 19.6 mph 25.3 mph N/A   Mostly Cloudy
2:35 AM 37.4 °F 27.5 °F 17.6 °F 45% 29.84 in 10.0 mi NW 18.4 mph 28.8 mph N/A   Mostly Cloudy
2:55 AM 37.4 °F 28.9 °F 19.4 °F 48% 29.84 in 10.0 mi WNW 13.8 mph 25.3 mph N/A   Overcast
3:15 AM 33.8 °F 22.5 °F 24.8 °F 70% 29.85 in 2.0 mi WNW 19.6 mph 28.8 mph N/A Snow Light Snow
3:35 AM 33.8 °F 25.3 °F 23.0 °F 65% 29.85 in 10.0 mi WNW 11.5 mph 21.9 mph N/A   Mostly Cloudy
3:55 AM 33.8 °F 24.3 °F 19.4 °F 56% 29.85 in 10.0 mi WNW 13.8 mph 31.1 mph N/A   Scattered Clouds
4:15 AM 33.8 °F 23.2 °F 15.8 °F 48% 29.86 in 10.0 mi NW 17.3 mph 31.1 mph N/A   Scattered Clouds
4:35 AM 33.8 °F 22.8 °F 14.0 °F 44% 29.86 in 10.0 mi NW 18.4 mph 27.6 mph N/A   Mostly Cloudy
4:55 AM 32.0 °F 21.2 °F 14.0 °F 48% 29.87 in 10.0 mi WNW 16.1 mph 25.3 mph N/A   Scattered Clouds
5:15 AM 32.0 °F 20.5 °F 14.0 °F 48% 29.87 in 10.0 mi NW 18.4 mph 27.6 mph N/A   Clear
5:35 AM 32.0 °F 22.1 °F 14.0 °F 48% 29.89 in 10.0 mi NW 13.8 mph 25.3 mph N/A   Scattered Clouds
5:55 AM 32.0 °F 22.1 °F 12.2 °F 44% 29.90 in 10.0 mi WNW 13.8 mph 19.6 mph N/A   Mostly Cloudy
6:15 AM 32.0 °F 19.8 °F 12.2 °F 44% 29.90 in 10.0 mi WNW 20.7 mph 28.8 mph N/A   Overcast
6:55 AM 32.0 °F 19.2 °F 12.2 °F 44% 29.91 in 10.0 mi WNW 23.0 mph 33.4 mph N/A   Mostly Cloudy
7:15 AM 32.0 °F 22.5 °F 12.2 °F 44% 29.92 in 10.0 mi WNW 12.7 mph 16.1 mph N/A   Overcast
7:35 AM 32.0 °F 20.5 °F 14.0 °F 48% 29.92 in 10.0 mi WNW 18.4 mph 27.6 mph N/A   Overcast
7:55 AM 33.8 °F 25.8 °F 14.0 °F 44% 29.93 in 10.0 mi West 10.4 mph - N/A   Overcast
8:15 AM 33.8 °F 23.9 °F 14.0 °F 44% 29.94 in 10.0 mi WNW 15.0 mph 20.7 mph N/A   Overcast
8:35 AM 33.8 °F 22.8 °F 15.8 °F 48% 29.94 in 10.0 mi NW 18.4 mph 24.2 mph N/A   Overcast
8:55 AM 33.8 °F 21.6 °F 17.6 °F 52% 29.95 in 10.0 mi WNW 23.0 mph 29.9 mph N/A   Overcast
9:15 AM 33.8 °F 21.3 °F 17.6 °F 52% 29.94 in 10.0 mi NW 24.2 mph 28.8 mph N/A   Overcast
9:35 AM 35.6 °F 25.2 °F 17.6 °F 48% 29.97 in 10.0 mi WNW 18.4 mph 25.3 mph N/A   Overcast
9:55 AM 35.6 °F 24.2 °F 19.4 °F 52% 29.97 in 10.0 mi WNW 21.9 mph 27.6 mph N/A   Overcast
10:15 AM 35.6 °F 26.2 °F 17.6 °F 48% 29.98 in 10.0 mi WNW 15.0 mph 26.5 mph N/A   Overcast
10:35 AM 35.6 °F 24.5 °F 15.8 °F 44% 29.98 in 10.0 mi WNW 20.7 mph 29.9 mph N/A   Overcast
10:55 AM 37.4 °F 26.1 °F 15.8 °F 41% 29.98 in 10.0 mi NW 24.2 mph 32.2 mph N/A   Mostly Cloudy
11:15 AM 39.2 °F 29.0 °F 14.0 °F 36% 29.99 in 10.0 mi NW 21.9 mph 33.4 mph N/A   Scattered Clouds
11:35 AM 37.4 °F 27.5 °F 14.0 °F 38% 30.01 in 10.0 mi NW 18.4 mph 34.5 mph N/A   Mostly Cloudy
11:55 AM 41.0 °F 31.6 °F 14.0 °F 33% 30.02 in 10.0 mi WNW 20.7 mph 27.6 mph N/A   Overcast
12:15 PM 41.0 °F 33.1 °F 12.2 °F 31% 30.02 in 10.0 mi NW 15.0 mph 32.2 mph N/A   Overcast
12:35 PM 39.2 °F 31.6 °F 12.2 °F 33% 30.03 in 10.0 mi NNW 12.7 mph 27.6 mph N/A   Overcast
12:55 PM 39.2 °F 29.8 °F 14.0 °F 36% 30.03 in 10.0 mi NNW 18.4 mph 31.1 mph N/A   Overcast
1:15 PM 37.4 °F 26.1 °F 14.0 °F 38% 30.04 in 10.0 mi NW 24.2 mph 32.2 mph N/A   Scattered Clouds
1:35 PM 37.4 °F 28.2 °F 14.0 °F 38% 30.05 in 10.0 mi WNW 16.1 mph 25.3 mph N/A   Mostly Cloudy
1:55 PM 37.4 °F 27.2 °F 15.8 °F 41% 30.05 in 10.0 mi NW 19.6 mph 27.6 mph N/A   Overcast
2:15 PM 37.4 °F 27.8 °F 15.8 °F 41% 30.04 in 10.0 mi NW 17.3 mph 27.6 mph N/A   Overcast
2:35 PM 37.4 °F 27.5 °F 17.6 °F 45% 30.04 in 10.0 mi NW 18.4 mph 31.1 mph N/A   Overcast
2:55 PM 37.4 °F 27.5 °F 17.6 °F 45% 30.05 in 10.0 mi NW 18.4 mph 25.3 mph N/A   Mostly Cloudy
3:15 PM 39.2 °F 30.5 °F 17.6 °F 42% 30.06 in 10.0 mi NW 16.1 mph 20.7 mph N/A   Mostly Cloudy
3:35 PM 37.4 °F 27.5 °F 17.6 °F 45% 30.06 in 10.0 mi NW 18.4 mph 26.5 mph N/A   Overcast
3:55 PM 37.4 °F 29.8 °F 17.6 °F 45% 30.07 in 10.0 mi NW 11.5 mph 25.3 mph N/A   Overcast
4:15 PM 37.4 °F 27.8 °F 17.6 °F 45% 30.07 in 10.0 mi NW 17.3 mph 20.7 mph N/A   Overcast
4:35 PM 37.4 °F 28.9 °F 19.4 °F 48% 30.08 in 10.0 mi WNW 13.8 mph 23.0 mph N/A   Overcast
4:55 PM 37.4 °F 28.5 °F 19.4 °F 48% 30.08 in 10.0 mi NW 15.0 mph 23.0 mph N/A   Overcast
5:15 PM 39.2 °F 33.0 °F 19.4 °F 45% 30.08 in 10.0 mi NW 9.2 mph 20.7 mph N/A   Mostly Cloudy
5:35 PM 39.2 °F 33.6 °F 19.4 °F 45% 30.09 in 10.0 mi NW 8.1 mph 17.3 mph N/A   Mostly Cloudy
5:55 PM 37.4 °F 29.8 °F 19.4 °F 48% 30.10 in 10.0 mi WNW 11.5 mph 17.3 mph N/A   Overcast
6:15 PM 37.4 °F 29.8 °F 19.4 °F 48% 30.10 in 10.0 mi NW 11.5 mph 19.6 mph N/A   Mostly Cloudy
6:35 PM 35.6 °F 28.0 °F 19.4 °F 52% 30.10 in 10.0 mi NW 10.4 mph - N/A   Clear
6:55 PM 35.6 °F 28.0 °F 19.4 °F 52% 30.11 in 10.0 mi NW 10.4 mph - N/A   Clear
7:15 PM 35.6 °F 28.0 °F 21.2 °F 56% 30.12 in 10.0 mi WNW 10.4 mph 17.3 mph N/A   Clear
7:35 PM 35.6 °F 28.0 °F 21.2 °F 56% 30.12 in 10.0 mi WNW 10.4 mph 17.3 mph N/A   Clear
7:55 PM 35.6 °F 28.0 °F 21.2 °F 56% 30.12 in 10.0 mi WNW 10.4 mph - N/A   Clear
8:15 PM 35.6 °F 27.1 °F 21.2 °F 56% 30.12 in 10.0 mi WNW 12.7 mph - N/A   Clear
8:35 PM 35.6 °F 27.1 °F 21.2 °F 56% 30.12 in 10.0 mi WNW 12.7 mph - N/A   Clear
8:55 PM 35.6 °F 26.2 °F 21.2 °F 56% 30.11 in 10.0 mi WNW 15.0 mph 18.4 mph N/A   Clear
9:15 PM 35.6 °F 28.6 °F 21.2 °F 56% 30.11 in 10.0 mi WNW 9.2 mph - N/A   Clear
9:35 PM 33.8 °F 26.4 °F 21.2 °F 60% 30.12 in 10.0 mi WNW 9.2 mph - N/A   Clear
9:55 PM 33.8 °F 23.2 °F 21.2 °F 60% 30.12 in 10.0 mi NW 17.3 mph - N/A   Clear
10:15 PM 33.8 °F 25.8 °F 21.2 °F 60% 30.12 in 10.0 mi NW 10.4 mph 18.4 mph N/A   Clear
10:35 PM 33.8 °F 26.4 °F 21.2 °F 60% 30.13 in 10.0 mi NW 9.2 mph - N/A   Clear
10:55 PM 33.8 °F 25.3 °F 21.2 °F 60% 30.13 in 10.0 mi NW 11.5 mph - N/A   Clear
11:15 PM 33.8 °F 25.3 °F 21.2 °F 60% 30.13 in 10.0 mi NW 11.5 mph - N/A   Clear
11:35 PM 33.8 °F 27.0 °F 21.2 °F 60% 30.13 in 10.0 mi NW 8.1 mph - N/A   Clear
11:55 PM 33.8 °F 27.0 °F 21.2 °F 60% 30.14 in 10.0 mi NW 8.1 mph - N/A   Clear